• In Uzbekistan
  • List of Countries
  • For 7 days
  • Water Temperature
  • Satellite Maps
  • Weather Map
  • Weather Widgets
  • user-avatar
    Login

    Hourly Weather La-Plata

    Today, 3 December, Saturday

    Time Temperature Precipitation Wind Pressure Humidity
    00:00 +22°C° 0 mm 3 mps 756 mmHg 85%
    01:00 +22°C° 0 mm 3 mps 756 mmHg 88%
    02:00 +22°C° 0 mm 3 mps 756 mmHg 90%
    03:00 +21°C° 0 mm 3 mps 756 mmHg 90%
    04:00 +21°C° 0 mm 3 mps 756 mmHg 91%
    05:00 +20°C° 0 mm 2 mps 756 mmHg 92%
    06:00 +24°C° 0 mm 3 mps 756 mmHg 81%
    07:00 +26°C° 0 mm 4 mps 757 mmHg 71%
    08:00 +29°C° 0 mm 4 mps 757 mmHg 61%
    09:00 +32°C° 0 mm 5 mps 757 mmHg 55%
    10:00 +33°C° 0 mm 5 mps 757 mmHg 49%
    11:00 +35°C° 0 mm 5 mps 757 mmHg 43%
    12:00 +35°C° 0 mm 6 mps 757 mmHg 42%
    13:00 +35°C° 0 mm 6 mps 756 mmHg 41%
    14:00 +35°C° 0 mm 7 mps 756 mmHg 40%
    15:00 +34°C° 0 mm 7 mps 756 mmHg 43%
    16:00 +32°C° 0 mm 8 mps 756 mmHg 47%
    17:00 +29°C° 0 mm 8 mps 755 mmHg 51%
    18:00 +27°C° 0.1 mm 7 mps 756 mmHg 64%
    19:00 +23°C° 0.1 mm 6 mps 757 mmHg 77%
    20:00 +20°C° 0.1 mm 5 mps 757 mmHg 91%
    21:00 +20°C° 0 mm 5 mps 758 mmHg 92%
    22:00 +20°C° 0 mm 5 mps 758 mmHg 94%
    23:00 +20°C° 0 mm 5 mps 758 mmHg 96%

    Tomorrow, 4 December, Sunday

    Time Temperature Precipitation Wind Pressure Humidity
    00:00 +20°C° 0 mm 5 mps 758 mmHg 96%
    01:00 +20°C° 0 mm 5 mps 758 mmHg 96%
    02:00 +20°C° 0 mm 5 mps 757 mmHg 96%
    03:00 +20°C° 0 mm 5 mps 757 mmHg 95%
    04:00 +20°C° 0 mm 4 mps 757 mmHg 95%
    05:00 +20°C° 0 mm 4 mps 757 mmHg 95%
    06:00 +22°C° 0 mm 4 mps 757 mmHg 85%
    07:00 +26°C° 0 mm 5 mps 757 mmHg 74%
    08:00 +28°C° 0 mm 5 mps 757 mmHg 63%
    09:00 +30°C° 0 mm 5 mps 757 mmHg 56%
    10:00 +33°C° 0 mm 4 mps 756 mmHg 50%
    11:00 +34°C° 0 mm 4 mps 756 mmHg 43%
    12:00 +35°C° 0 mm 4 mps 755 mmHg 39%
    13:00 +36°C° 0 mm 5 mps 755 mmHg 36%
    14:00 +37°C° 0 mm 5 mps 754 mmHg 33%
    15:00 +36°C° 0 mm 5 mps 754 mmHg 34%
    16:00 +35°C° 0 mm 6 mps 753 mmHg 36%
    17:00 +34°C° 0 mm 6 mps 753 mmHg 37%
    18:00 +32°C° 0 mm 6 mps 753 mmHg 47%
    19:00 +28°C° 0 mm 6 mps 753 mmHg 56%
    20:00 +26°C° 0 mm 6 mps 753 mmHg 66%
    21:00 +26°C° 0 mm 6 mps 753 mmHg 62%
    22:00 +26°C° 0 mm 7 mps 752 mmHg 59%
    23:00 +26°C° 0 mm 7 mps 752 mmHg 56%

    Day after tomorrow, 5 December, Monday

    Time Temperature Precipitation Wind Pressure Humidity
    00:00 +26°C° 0 mm 7 mps 752 mmHg 57%
    01:00 +24°C° 0 mm 7 mps 752 mmHg 59%
    02:00 +23°C° 0 mm 7 mps 752 mmHg 61%
    03:00 +23°C° 0 mm 7 mps 752 mmHg 63%
    04:00 +23°C° 0 mm 7 mps 753 mmHg 66%
    05:00 +23°C° 0 mm 7 mps 753 mmHg 68%
    06:00 +26°C° 0 mm 7 mps 753 mmHg 62%
    07:00 +28°C° 0 mm 7 mps 754 mmHg 55%
    08:00 +29°C° 0 mm 7 mps 754 mmHg 48%
    09:00 +32°C° 0 mm 6 mps 754 mmHg 42%
    10:00 +34°C° 0 mm 6 mps 754 mmHg 35%
    11:00 +36°C° 0 mm 5 mps 753 mmHg 29%
    12:00 +36°C° 0.1 mm 5 mps 753 mmHg 30%
    13:00 +36°C° 0.1 mm 5 mps 752 mmHg 30%
    14:00 +36°C° 0.1 mm 5 mps 752 mmHg 31%
    15:00 +36°C° 0.1 mm 4 mps 752 mmHg 29%
    16:00 +35°C° 0.1 mm 4 mps 751 mmHg 28%
    17:00 +35°C° 0.1 mm 4 mps 751 mmHg 26%
    18:00 +33°C° 0.2 mm 4 mps 752 mmHg 23%
    19:00 +30°C° 0.2 mm 5 mps 753 mmHg 19%
    20:00 +27°C° 0.2 mm 5 mps 753 mmHg 16%
    21:00 +26°C° 0.1 mm 5 mps 754 mmHg 17%
    22:00 +24°C° 0.1 mm 6 mps 754 mmHg 18%
    23:00 +22°C° 0.1 mm 6 mps 754 mmHg 18%

    6 December, Tuesday

    Time Temperature Precipitation Wind Pressure Humidity
    00:00 +21°C° 0 mm 6 mps 754 mmHg 21%
    01:00 +20°C° 0 mm 6 mps 754 mmHg 24%
    02:00 +17°C° 0 mm 6 mps 754 mmHg 26%
    03:00 +17°C° 0 mm 6 mps 755 mmHg 26%
    04:00 +16°C° 0 mm 6 mps 755 mmHg 27%
    05:00 +16°C° 0 mm 6 mps 755 mmHg 27%
    06:00 +20°C° 0 mm 7 mps 756 mmHg 25%
    07:00 +22°C° 0 mm 7 mps 756 mmHg 24%
    08:00 +26°C° 0 mm 8 mps 756 mmHg 23%
    09:00 +28°C° 0 mm 8 mps 756 mmHg 20%
    10:00 +31°C° 0 mm 8 mps 756 mmHg 18%
    11:00 +32°C° 0 mm 8 mps 755 mmHg 16%
    12:00 +33°C° 0 mm 8 mps 755 mmHg 15%
    13:00 +34°C° 0 mm 8 mps 754 mmHg 14%
    14:00 +35°C° 0 mm 8 mps 754 mmHg 12%
    15:00 +34°C° 0 mm 7 mps 753 mmHg 13%
    16:00 +34°C° 0 mm 7 mps 753 mmHg 14%
    17:00 +33°C° 0 mm 6 mps 753 mmHg 15%
    18:00 +29°C° 0 mm 6 mps 753 mmHg 20%
    19:00 +26°C° 0 mm 5 mps 754 mmHg 25%
    20:00 +22°C° 0 mm 4 mps 754 mmHg 30%
    21:00 +21°C° 0 mm 4 mps 754 mmHg 32%
    22:00 +20°C° 0 mm 5 mps 755 mmHg 34%
    23:00 +19°C° 0 mm 6 mps 755 mmHg 36%

    7 December, Wednesday

    Time Temperature Precipitation Wind Pressure Humidity
    00:00 +17°C° 0 mm 5 mps 755 mmHg 42%
    01:00 +16°C° 0 mm 5 mps 755 mmHg 48%
    02:00 +15°C° 0 mm 4 mps 755 mmHg 55%
    03:00 +14°C° 0 mm 4 mps 755 mmHg 56%
    04:00 +14°C° 0 mm 3 mps 756 mmHg 58%
    05:00 +14°C° 0 mm 3 mps 756 mmHg 60%
    06:00 +18°C° 0 mm 3 mps 756 mmHg 52%
    07:00 +22°C° 0 mm 3 mps 756 mmHg 44%
    08:00 +26°C° 0 mm 3 mps 756 mmHg 37%
    09:00 +28°C° 0 mm 3 mps 755 mmHg 32%
    10:00 +30°C° 0 mm 3 mps 755 mmHg 28%
    11:00 +31°C° 0 mm 3 mps 754 mmHg 24%
    12:00 +33°C° 0 mm 4 mps 753 mmHg 22%
    13:00 +34°C° 0 mm 4 mps 752 mmHg 20%
    14:00 +35°C° 0 mm 4 mps 751 mmHg 18%
    15:00 +35°C° 0 mm 4 mps 751 mmHg 18%
    16:00 +34°C° 0 mm 4 mps 750 mmHg 19%
    17:00 +33°C° 0 mm 4 mps 749 mmHg 20%
    18:00 +30°C° 0 mm 4 mps 750 mmHg 26%
    19:00 +28°C° 0 mm 4 mps 750 mmHg 31%
    20:00 +26°C° 0 mm 4 mps 750 mmHg 37%
    21:00 +23°C° 0 mm 6 mps 751 mmHg 44%
    22:00 +20°C° 0 mm 8 mps 752 mmHg 51%
    23:00 +17°C° 0 mm 11 mps 753 mmHg 58%

    8 December, Thursday

    Time Temperature Precipitation Wind Pressure Humidity
    00:00 +16°C° 0 mm 10 mps 753 mmHg 62%
    01:00 +15°C° 0 mm 9 mps 754 mmHg 66%
    02:00 +15°C° 0 mm 9 mps 754 mmHg 70%
    03:00 +12°C° 0 mm 8 mps 755 mmHg 74%
    04:00 +11°C° 0 mm 7 mps 756 mmHg 78%
    05:00 +10°C° 0 mm 7 mps 756 mmHg 81%
    06:00 +12°C° 0 mm 7 mps 757 mmHg 67%
    07:00 +16°C° 0 mm 8 mps 757 mmHg 53%
    08:00 +18°C° 0 mm 8 mps 758 mmHg 39%
    09:00 +21°C° 0 mm 8 mps 758 mmHg 34%
    10:00 +23°C° 0 mm 7 mps 758 mmHg 29%
    11:00 +24°C° 0 mm 7 mps 758 mmHg 23%
    12:00 +26°C° 0 mm 6 mps 757 mmHg 22%
    13:00 +27°C° 0 mm 6 mps 757 mmHg 20%
    14:00 +28°C° 0 mm 6 mps 756 mmHg 18%
    15:00 +27°C° 0 mm 6 mps 756 mmHg 19%
    16:00 +27°C° 0 mm 6 mps 756 mmHg 20%
    17:00 +27°C° 0 mm 6 mps 756 mmHg 20%
    18:00 +23°C° 0 mm 6 mps 757 mmHg 25%
    19:00 +20°C° 0 mm 6 mps 757 mmHg 30%
    20:00 +17°C° 0 mm 5 mps 758 mmHg 35%
    21:00 +16°C° 0 mm 5 mps 758 mmHg 40%
    22:00 +15°C° 0 mm 5 mps 759 mmHg 45%
    23:00 +14°C° 0 mm 4 mps 759 mmHg 50%
    Show more